User: anonymous   Login
Location: Bosdarros
(43.2167°N, 0.3667°W)
Time: 04:20:50
(UTC+00:00)
Language:

SPOT 5 - Orbit

View from above orbital plane
View from above orbital plane
View from above satellite
View from above satellite

Ground track
Ground track

The orbit data is extracted from the following two-line orbital elements,

1 27421U 02021A   21175.03032216 -.00000377  00000-0 -71518-4 0  9999
2 27421  98.2296 245.5635 0136090 142.3526 218.7059 14.52103510998679
Epoch (UTC): 24 June 2021 00:43:39
Eccentricity: 0.0136090
inclination: 98.2296°
perigee height: 622 km
apogee height: 815 km
right ascension of ascending node: 245.5635°
argument of perigee: 142.3526°
revolutions per day: 14.52103510
mean anomaly at epoch: 218.7059°
orbit number at epoch: 99867

The dashed part of the orbit path shows where the satellite is in the earth's shadow,  

DLR